SCP
0 0 0 0 0 0 0 0 0 0 0 0 0 0 0 0 0 0 0 0 0 0 0 0 0 1 0 0 0 0 0 0 0 0 0 0 0 0 0 0 0 0 0 0 0 0 0 0 0
0 0 0 0 0 0 0 0 0 0 0 0 0 0 0 0 0 0 0 0 0 0 0 0 0 0 0 0 0 0 0 0 0 0 0 0 0 0 0 0 0 0 0 0 0 0 0 0 0
0 0 0 0 0 0 0 0 0 0 0 0 0 0 0 0 0 0 0 0 0 0 0 0 0 0 0 1 0 0 0 0 0 0 0 0 0 0 0 0 0 0 0 0 0 0 0 0 1
0 0 0 0 0 0 0 0 0 0 0 0 0 0 0 0 0 0 0 0 0 0 0 0 0 0 0 0 1 1 1 0 0 0 0 0 0 0 0 1 0 1 0 0 0 0 0 0 1
0 0 0 0 0 0 0 0 0 0 0 0 0 0 0 0 0 0 0 0 0 0 0 0 0 0 0 0 0 1 1 0 0 0 0 0 0 0 0 0 1 0 0 0 0 1 0 1 1
0 0 0 0 0 0 0 0 0 0 0 0 0 0 0 0 0 0 0 0 0 0 0 0 0 0 0 0 1 1 1 1 0 0 0 0 0 0 0 0 0 1 1 1 1 1 1 1 1
0 0 0 0 0 0 0 0 0 0 0 0 0 0 0 0 0 0 0 0 0 0 0 0 0 0 0 0 1 1 1 0 0 0 0 0 0 0 0 0 1 1 1 1 1 1 1 1 0
0 0 0 0 0 0 0 0 0 0 0 0 0 0 0 0 0 0 0 0 0 0 0 0 0 0 0 0 0 0 1 0 0 0 0 0 0 0 0 0 0 0 1 1 1 1 1 1 0
0 0 0 0 0 0 0 0 0 0 0 0 0 0 0 0 0 0 0 0 0 0 0 0 0 0 0 0 0 0 0 0 0 0 0 0 0 0 0 0 0 0 0 0 1 1 1 0 0
0 0 0 0 0 0 0 0 0 0 0 0 0 0 0 0 0 -0 0 0 0 0 0 0 0 0 0 1 1 1 1 0 0 0 0 0 0 0 0 0 0 0 0 0 1 1 0 0 0
0 0 0 0 0 0 0 0 0 0 0 0 0 0 -0 -0 0 0 0 0 0 0 0 0 0 0 0 0 1 1 1 1 1 0 0 0 0 0 0 1 1 1 0 0 0 0 0 0 0
0 0 0 0 0 0 0 0 0 0 0 0 0 -0 -0 0 0 0 0 0 0 0 0 0 0 0 0 0 0 1 1 1 1 1 0 0 0 0 0 0 1 0 0 0 0 0 0 0 0
0 0 0 0 0 0 0 0 0 0 0 0 0 0 0 0 0 0 0 0 0 0 0 0 0 0 0 0 0 0 1 1 1 1 1 0 0 0 0 0 0 0 0 0 0 0 0 0 0
0 0 0 0 0 0 0 0 0 0 0 0 -0 -0 0 0 0 0 0 0 0 0 0 0 0 0 0 0 0 0 0 1 1 1 1 0 0 0 0 0 0 0 0 0 0 0 0 0 0
0 0 0 0 0 0 0 0 0 0 0 0 0 0 0 0 0 0 0 0 0 0 0 0 0 0 0 0 0 0 0 0 1 1 0 0 0 0 0 0 0 0 0 0 0 0 0 0 0
0 0 0 0 0 0 0 0 0 0 0 0 0 0 0 0 0 0 0 0 0 0 0 0 0 0 0 0 0 0 0 0 0 1 1 0 0 0 0 0 0 0 0 0 0 0 0 0 0
0 0 0 0 0 0 0 0 0 0 0 0 0 0 0 0 0 0 0 0 0 0 0 0 0 0 0 0 0 0 0 0 0 0 1 0 0 0 0 0 0 0 0 0 0 0 0 0 0
0 0 0 0 0 0 0 0 0 0 0 0 0 0 0 0 0 0 0 0 0 0 0 -0 -0 -0 0 0 0 0 0 0 0 0 0 0 0 0 0 0 0 0 0 0 0 0 0 0 0
0 0 0 0 0 0 0 0 0 0 0 0 0 0 0 0 0 0 0 0 -0 -0 -0 -0 -0 -0 -0 -0 0 0 0 0 0 0 0 0 0 0 0 0 0 0 0 0 0 0 0 0 0
0 0 0 0 0 0 0 0 0 0 0 0 0 0 0 0 0 0 -0 -0 -0 -0 -0 -0 -0 -0 -0 -0 -0 -0 -0 0 0 0 0 0 0 0 0 0 0 0 0 0 0 0 0 0 0
0 0 0 0 0 0 0 0 0 0 0 0 0 0 0 0 0 0 0 0 -0 -0 -0 -0 -0 -0 -0 -0 -0 -0 -0 -0 0 0 0 0 0 0 0 0 0 0 0 0 0 0 0 0 0
0 0 0 0 0 0 0 0 0 0 0 0 0 0 0 0 0 0 0 0 -0 -0 -0 0 0 0 -0 -0 -0 -0 -0 -0 0 -0 0 0 0 0 0 0 0 0 0 0 0 0 0 0 0
0 0 0 0 0 0 0 0 0 0 0 0 0 0 0 0 0 0 0 0 0 0 0 0 0 0 0 -0 -0 -0 -0 -0 -0 -0 -0 0 0 0 0 0 0 0 0 0 0 0 0 0 0
0 0 0 0 0 0 0 0 0 0 0 0 0 0 0 0 0 0 0 0 0 0 0 0 0 0 0 -0 -0 -0 -0 -0 -0 -0 -0 0 0 0 0 0 0 0 0 0 0 0 0 0 0
0 0 0 0 0 0 0 0 0 0 0 0 0 0 0 0 0 0 0 0 0 0 0 0 0 0 0 0 -0 -0 -0 -0 -0 0 -0 -0 0 0 0 0 0 0 0 0 0 0 0 0 0
0 0 0 0 0 0 0 0 0 0 0 0 0 0 0 0 0 0 0 0 0 0 -0 0 0 0 0 0 0 -0 -0 -0 -0 -0 0 -0 -0 0 0 0 0 0 0 0 0 0 0 0 0
0 0 0 0 0 0 0 0 0 0 0 0 0 0 0 0 0 0 0 0 0 0 -0 0 0 -0 0 0 0 0 -0 -0 -0 -0 0 0 -0 0 0 0 0 0 0 0 0 0 0 0 0
0 0 0 0 0 0 0 0 0 0 0 0 0 0 0 0 0 0 0 0 0 -0 -0 -0 0 -0 0 0 0 0 0 0 -0 -0 -0 -0 0 -0 0 0 0 0 0 0 0 0 0 0 0
0 0 0 0 0 0 0 0 0 0 0 0 0 0 0 0 0 0 0 0 0 -0 -0 0 0 0 0 0 0 0 0 0 -0 -0 -0 -0 0 -0 0 0 0 0 0 0 0 0 0 0 0
0 0 0 0 0 0 0 0 0 0 0 0 0 0 0 0 0 0 0 0 0 -0 -0 0 0 -0 -0 -0 0 0 0 0 -0 -0 -0 -0 -0 -0 -0 0 0 0 0 0 0 0 0 0 0
Wind_Speed_500mb
12 7 7 2 6 4 5 6 5 5 5 4 4 9 12 19 14 20 17 24 19 19 20 25 29 34 38 39 37 36 36 36 33 29 27 31 35 37 37 37 35 33 34 35 36 35 41 47 48
9 6 6 2 4 4 9 3 5 10 8 6 10 16 17 25 26 30 37 35 33 25 20 26 28 33 41 45 43 42 42 41 38 34 32 30 33 34 33 33 30 30 34 37 41 39 45 51 53
6 6 3 0 2 7 6 4 12 10 10 9 8 9 13 11 13 15 31 34 28 28 34 34 35 37 42 48 49 46 46 44 44 39 35 34 31 31 29 27 26 29 34 39 44 44 50 56 56
3 2 4 3 7 4 4 9 11 13 2 9 8 20 13 25 21 28 47 43 36 31 36 40 45 48 51 54 54 52 51 49 49 43 38 33 32 31 31 30 30 30 34 40 45 47 54 60 59
3 3 3 1 3 1 6 7 6 8 9 9 6 13 16 24 21 26 35 38 40 41 42 44 46 48 51 53 55 56 56 53 51 48 45 39 34 35 35 31 30 32 37 45 50 52 59 64 62
4 2 5 5 5 3 6 5 7 9 10 11 8 15 13 17 24 31 34 34 39 43 45 47 48 51 53 54 56 57 58 57 54 53 50 44 38 40 39 36 34 31 39 50 54 56 64 67 68
2 3 1 2 3 4 3 3 9 18 21 19 8 12 14 24 43 45 42 39 39 43 47 50 51 54 58 61 62 63 61 57 57 54 51 47 42 44 42 37 36 34 38 54 58 59 64 67 70
4 4 8 6 2 4 5 3 7 9 19 18 7 11 33 45 54 53 55 51 48 46 50 53 56 58 59 61 65 69 67 62 58 56 54 50 46 47 43 40 38 36 39 57 61 62 68 63 63
3 3 4 2 3 10 5 12 8 16 18 15 10 23 38 57 51 55 55 55 58 57 57 60 59 61 59 57 58 65 70 65 63 59 56 50 47 48 46 42 38 37 39 57 63 68 73 70 58
3 4 6 2 4 15 27 13 19 11 30 13 23 32 42 56 47 46 48 48 47 46 50 57 69 69 64 60 60 65 72 70 66 64 63 54 51 51 48 41 39 37 35 54 69 83 80 73 69
2 5 6 1 6 10 24 25 4 16 18 30 34 50 56 53 50 52 54 54 52 51 49 42 51 68 73 69 68 69 74 71 71 68 65 58 54 56 49 44 40 42 42 48 58 89 90 70 77
9 7 6 1 1 13 21 18 18 9 22 27 32 40 44 47 54 61 59 64 70 68 59 49 45 49 67 78 76 76 76 76 74 74 68 64 59 61 54 47 45 50 46 56 40 19 36 40 41
6 9 3 7 17 14 18 15 6 6 18 40 48 41 38 44 49 53 54 59 68 80 83 66 49 47 50 69 84 86 85 81 78 75 72 67 66 66 63 57 52 54 58 65 45 45 50 47 49
5 21 31 4 10 4 11 12 8 13 38 53 37 30 37 43 46 52 65 67 73 74 82 86 73 44 45 53 68 84 92 82 79 78 77 72 69 71 68 63 59 58 58 59 56 51 49 48 47
7 14 11 13 9 10 10 8 4 17 50 38 28 35 39 42 46 56 59 65 69 74 79 80 81 78 45 44 61 72 79 88 87 86 83 77 73 73 67 67 66 65 66 56 51 47 44 51 59
6 5 13 13 10 16 22 18 23 41 43 28 30 32 36 41 44 51 62 69 72 72 75 81 75 68 61 40 48 60 70 79 87 89 89 84 79 76 73 71 69 72 73 65 48 63 64 62 61
5 18 28 23 5 5 10 29 25 47 28 32 32 32 35 35 45 54 64 69 72 73 76 77 82 74 63 47 43 57 63 74 85 91 86 91 84 82 80 77 72 70 74 73 67 70 75 70 70
24 20 21 38 11 24 17 25 37 28 38 29 28 33 43 47 42 49 64 66 70 74 79 74 70 68 64 54 43 48 60 69 80 84 96 99 90 90 88 83 79 78 81 82 77 80 80 88 75
16 24 39 39 34 22 27 36 38 21 27 29 32 40 45 44 38 52 64 64 71 66 74 76 74 63 60 56 53 49 57 64 74 85 98 99 100 97 93 89 84 85 86 89 86 84 98 95 92
22 31 37 23 10 26 38 33 12 25 29 29 27 45 50 53 49 60 75 83 76 64 69 73 66 67 67 60 55 55 63 60 68 80 90 91 100 104 99 95 92 91 89 93 89 107 100 99 97
26 19 21 27 35 33 29 22 6 26 21 31 31 43 52 60 64 69 76 83 70 62 70 74 72 67 62 72 69 66 80 66 57 69 83 88 91 106 104 96 97 91 93 97 93 93 103 102 97
20 14 23 36 39 31 32 17 10 25 12 25 33 46 57 68 78 78 85 84 80 72 83 77 70 67 67 64 74 71 60 71 73 72 83 88 91 101 93 99 99 94 96 96 102 97 107 105 105
8 21 25 40 44 28 7 11 5 22 16 30 39 47 61 80 88 85 84 92 91 78 94 86 76 69 77 66 57 67 76 69 81 70 67 90 92 104 106 106 99 101 100 97 109 110 114 109 105
16 19 42 17 11 10 18 9 16 12 9 22 39 57 77 91 89 88 94 99 92 86 99 91 83 77 73 72 66 64 75 78 76 76 61 68 99 100 100 106 103 103 104 103 110 122 121 115 99
16 19 14 10 5 12 16 20 16 17 14 25 39 65 85 86 81 94 95 97 99 99 105 97 86 91 79 78 71 67 67 79 77 70 60 69 71 93 106 108 112 108 108 107 113 127 134 124 112
3 3 5 13 12 33 30 13 5 17 19 35 50 70 75 77 91 95 98 100 99 104 100 101 91 97 89 82 83 71 66 77 84 66 49 62 86 90 107 114 116 114 109 111 111 119 113 118 115
11 10 6 9 5 12 12 9 20 15 29 40 61 73 73 85 96 101 107 104 105 107 102 105 104 101 93 85 87 83 66 68 84 72 63 58 60 80 110 120 110 119 112 112 115 122 116 106 97
6 9 4 5 9 15 21 38 15 28 32 50 64 75 83 96 104 109 121 115 115 107 107 105 101 99 92 86 85 87 76 67 75 76 71 67 59 65 56 128 116 129 118 117 121 118 121 123 104
7 9 4 0 7 8 14 19 12 27 24 55 65 79 86 100 104 109 113 112 106 101 87 75 72 76 78 82 83 85 82 73 82 81 69 73 66 57 94 101 121 121 128 122 121 121 123 121 119
17 15 14 7 10 16 15 28 24 8 50 61 69 78 90 105 108 113 106 100 98 108 113 104 101 103 98 81 63 82 85 76 69 70 71 72 76 70 84 56 121 135 138 132 126 128 127 121 127
Wind_Direction_500mb
25 55 123 115 222 249 57 71 322 265 262 216 189 233 285 287 276 294 290 293 302 304 245 230 225 227 224 223 226 229 232 235 240 245 256 256 249 246 249 252 252 244 234 222 210 211 210 202 197
39 90 94 225 298 36 72 37 316 344 321 300 259 257 267 283 268 271 284 289 281 270 252 233 230 232 233 232 230 231 233 233 238 242 255 253 249 245 248 251 246 241 232 222 208 211 208 200 199
51 111 203 189 39 37 12 5 326 324 293 253 276 274 291 262 284 274 295 304 288 266 252 253 247 245 236 237 238 236 237 235 237 244 251 249 246 239 239 247 248 243 232 220 208 210 207 202 201
2 161 76 287 48 110 335 358 324 317 322 221 269 286 270 277 288 292 300 298 289 273 252 252 253 247 241 237 236 238 239 237 235 241 248 242 236 231 232 233 238 239 232 219 207 210 206 203 202
323 259 192 138 67 277 242 293 285 295 298 264 243 301 280 301 321 323 306 298 284 275 268 252 248 246 242 240 242 240 238 239 237 239 242 240 234 236 232 234 233 234 230 217 210 211 206 203 202
262 289 252 334 7 338 285 259 281 288 293 282 258 280 269 310 330 325 322 305 287 278 268 255 250 246 244 243 243 242 240 238 238 238 238 236 237 236 236 236 234 233 228 215 211 212 206 205 202
313 286 302 251 305 293 127 209 289 334 309 318 262 278 299 325 332 326 323 318 298 283 273 265 255 249 249 248 246 243 237 239 239 239 238 237 238 240 240 237 232 233 222 212 209 210 209 207 207
156 224 172 209 346 317 150 245 303 293 322 298 257 318 333 329 324 328 328 321 315 301 280 270 264 257 252 252 247 241 235 237 241 240 239 240 242 240 242 238 232 231 220 208 209 210 209 206 191
51 212 217 244 203 348 340 331 341 287 282 288 268 313 331 346 345 344 336 333 328 315 297 283 270 263 256 253 247 238 235 238 237 239 239 241 243 238 234 229 228 225 219 206 207 206 202 202 184
250 249 169 21 22 322 318 325 324 301 327 337 337 355 339 349 349 350 349 337 327 312 309 296 276 267 259 250 244 240 237 239 238 236 236 241 240 233 226 227 229 223 219 212 205 196 204 196 175
293 273 137 47 310 318 309 335 21 311 358 10 345 345 347 360 6 9 4 359 347 333 316 299 289 274 262 251 245 239 236 238 240 236 237 236 233 225 222 225 223 222 215 201 185 175 190 184 172
282 264 212 113 70 317 302 324 337 313 351 353 358 354 3 14 23 24 21 18 14 7 347 320 292 275 267 257 247 243 237 237 235 239 236 230 226 224 225 224 218 218 208 191 209 193 174 164 170
249 310 58 149 298 275 291 314 310 1 16 355 346 5 25 36 31 26 20 15 13 15 11 353 319 289 266 258 254 249 240 238 238 236 233 229 229 226 228 229 222 222 216 218 226 187 196 169 175
311 294 294 129 137 155 337 317 328 50 357 353 6 48 62 44 34 26 21 14 10 7 11 7 359 318 284 260 255 249 251 239 238 234 230 230 230 229 229 227 217 216 216 195 178 168 178 174 180
299 303 315 131 93 146 289 314 127 14 347 351 46 72 51 39 29 23 15 9 7 7 5 5 2 359 317 279 262 259 247 250 238 237 230 230 227 230 224 223 213 212 212 196 203 179 172 182 180
275 229 345 350 29 148 347 299 334 341 343 56 85 59 40 32 24 17 10 4 2 358 359 359 358 357 351 302 272 259 254 250 243 239 234 229 226 226 225 222 219 211 214 203 189 182 170 177 179
19 320 327 326 342 44 343 296 320 345 20 86 68 52 36 21 17 13 6 2 1 356 351 349 350 348 346 336 298 270 262 255 251 243 235 231 229 225 225 222 223 217 211 200 193 182 184 177 178
306 311 307 309 292 341 308 284 318 12 99 89 65 37 21 11 9 6 359 357 355 352 352 346 344 342 338 333 321 297 272 260 255 250 244 237 231 229 224 226 225 218 213 203 194 187 188 186 185
296 297 304 311 329 339 325 317 331 82 86 70 49 28 11 3 357 354 354 351 348 351 354 352 344 340 337 331 327 320 298 272 256 254 248 246 233 231 226 226 224 220 215 206 200 196 188 186 182
309 305 308 307 323 334 318 322 74 110 79 57 45 16 11 3 351 350 350 347 345 344 349 350 344 339 337 332 315 313 316 287 269 261 246 248 246 233 228 224 225 219 214 207 205 194 186 186 184
310 309 317 304 317 296 331 300 111 125 73 41 33 13 8 4 352 344 345 345 340 337 340 340 336 331 330 333 327 292 287 305 283 258 246 250 244 236 227 225 222 218 216 208 202 196 191 187 185
299 354 311 312 321 312 339 286 322 181 49 25 14 6 1 354 349 345 342 343 339 333 336 330 330 329 323 326 328 336 302 297 305 275 248 253 241 244 229 223 220 217 216 209 197 196 197 192 185
329 330 307 302 294 311 294 240 205 231 356 4 3 356 351 347 342 339 337 335 332 323 331 326 323 319 322 315 315 319 331 293 291 291 275 243 247 240 239 217 215 216 216 211 203 195 196 201 198
322 330 308 293 283 251 132 351 252 338 31 1 356 352 347 341 335 333 331 330 328 320 322 321 314 314 310 315 304 309 316 325 286 295 277 262 237 234 236 229 216 216 215 214 207 201 197 198 205
359 350 318 307 276 282 170 327 308 102 44 14 358 350 336 332 331 327 327 326 322 320 318 317 309 307 305 306 302 300 307 315 314 293 281 272 247 227 221 232 215 215 214 213 213 206 200 202 205
113 167 239 278 302 295 296 221 174 141 16 7 354 338 329 330 328 324 324 321 318 317 313 312 306 302 301 299 302 294 296 305 316 291 291 288 270 235 230 223 218 215 211 212 217 208 210 203 209
149 218 37 268 210 279 255 239 192 40 351 347 336 334 330 331 327 324 321 318 314 313 309 310 305 302 298 294 299 293 287 293 308 296 297 290 278 274 219 222 218 212 211 211 210 212 205 202 203
265 109 164 183 279 289 283 298 271 353 341 337 337 334 333 329 326 324 320 316 315 313 310 309 305 302 298 293 292 289 287 286 300 306 299 294 270 271 292 223 217 216 211 211 212 208 202 200 199
161 178 146 9 251 264 295 290 27 341 341 335 330 330 329 323 321 318 318 317 318 317 318 317 315 310 307 298 291 285 282 277 291 300 295 299 290 286 246 220 214 220 213 211 212 209 205 203 207
231 197 179 197 225 236 286 277 301 281 339 328 325 326 324 320 321 321 321 319 320 315 313 311 308 301 296 295 296 289 279 274 279 287 295 301 289 271 232 266 218 209 213 211 212 211 209 208 210
Wind_Speed_850mb
12 7 7 2 6 4 5 6 5 5 5 4 4 9 12 19 14 20 17 24 19 19 20 25 29 34 38 39 37 36 36 36 33 29 27 31 35 37 37 37 35 33 34 35 36 35 41 47 48
9 6 6 2 4 4 9 3 5 10 8 6 10 16 17 25 26 30 37 35 33 25 20 26 28 33 41 45 43 42 42 41 38 34 32 30 33 34 33 33 30 30 34 37 41 39 45 51 53
6 6 3 0 2 7 6 4 12 10 10 9 8 9 13 11 13 15 31 34 28 28 34 34 35 37 42 48 49 46 46 44 44 39 35 34 31 31 29 27 26 29 34 39 44 44 50 56 56
3 2 4 3 7 4 4 9 11 13 2 9 8 20 13 25 21 28 47 43 36 31 36 40 45 48 51 54 54 52 51 49 49 43 38 33 32 31 31 30 30 30 34 40 45 47 54 60 59
3 3 3 1 3 1 6 7 6 8 9 9 6 13 16 24 21 26 35 38 40 41 42 44 46 48 51 53 55 56 56 53 51 48 45 39 34 35 35 31 30 32 37 45 50 52 59 64 62
4 2 5 5 5 3 6 5 7 9 10 11 8 15 13 17 24 31 34 34 39 43 45 47 48 51 53 54 56 57 58 57 54 53 50 44 38 40 39 36 34 31 39 50 54 56 64 67 68
2 3 1 2 3 4 3 3 9 18 21 19 8 12 14 24 43 45 42 39 39 43 47 50 51 54 58 61 62 63 61 57 57 54 51 47 42 44 42 37 36 34 38 54 58 59 64 67 70
4 4 8 6 2 4 5 3 7 9 19 18 7 11 33 45 54 53 55 51 48 46 50 53 56 58 59 61 65 69 67 62 58 56 54 50 46 47 43 40 38 36 39 57 61 62 68 63 63
3 3 4 2 3 10 5 12 8 16 18 15 10 23 38 57 51 55 55 55 58 57 57 60 59 61 59 57 58 65 70 65 63 59 56 50 47 48 46 42 38 37 39 57 63 68 73 70 58
3 4 6 2 4 15 27 13 19 11 30 13 23 32 42 56 47 46 48 48 47 46 50 57 69 69 64 60 60 65 72 70 66 64 63 54 51 51 48 41 39 37 35 54 69 83 80 73 69
2 5 6 1 6 10 24 25 4 16 18 30 34 50 56 53 50 52 54 54 52 51 49 42 51 68 73 69 68 69 74 71 71 68 65 58 54 56 49 44 40 42 42 48 58 89 90 70 77
9 7 6 1 1 13 21 18 18 9 22 27 32 40 44 47 54 61 59 64 70 68 59 49 45 49 67 78 76 76 76 76 74 74 68 64 59 61 54 47 45 50 46 56 40 19 36 40 41
6 9 3 7 17 14 18 15 6 6 18 40 48 41 38 44 49 53 54 59 68 80 83 66 49 47 50 69 84 86 85 81 78 75 72 67 66 66 63 57 52 54 58 65 45 45 50 47 49
5 21 31 4 10 4 11 12 8 13 38 53 37 30 37 43 46 52 65 67 73 74 82 86 73 44 45 53 68 84 92 82 79 78 77 72 69 71 68 63 59 58 58 59 56 51 49 48 47
7 14 11 13 9 10 10 8 4 17 50 38 28 35 39 42 46 56 59 65 69 74 79 80 81 78 45 44 61 72 79 88 87 86 83 77 73 73 67 67 66 65 66 56 51 47 44 51 59
6 5 13 13 10 16 22 18 23 41 43 28 30 32 36 41 44 51 62 69 72 72 75 81 75 68 61 40 48 60 70 79 87 89 89 84 79 76 73 71 69 72 73 65 48 63 64 62 61
5 18 28 23 5 5 10 29 25 47 28 32 32 32 35 35 45 54 64 69 72 73 76 77 82 74 63 47 43 57 63 74 85 91 86 91 84 82 80 77 72 70 74 73 67 70 75 70 70
24 20 21 38 11 24 17 25 37 28 38 29 28 33 43 47 42 49 64 66 70 74 79 74 70 68 64 54 43 48 60 69 80 84 96 99 90 90 88 83 79 78 81 82 77 80 80 88 75
16 24 39 39 34 22 27 36 38 21 27 29 32 40 45 44 38 52 64 64 71 66 74 76 74 63 60 56 53 49 57 64 74 85 98 99 100 97 93 89 84 85 86 89 86 84 98 95 92
22 31 37 23 10 26 38 33 12 25 29 29 27 45 50 53 49 60 75 83 76 64 69 73 66 67 67 60 55 55 63 60 68 80 90 91 100 104 99 95 92 91 89 93 89 107 100 99 97
26 19 21 27 35 33 29 22 6 26 21 31 31 43 52 60 64 69 76 83 70 62 70 74 72 67 62 72 69 66 80 66 57 69 83 88 91 106 104 96 97 91 93 97 93 93 103 102 97
20 14 23 36 39 31 32 17 10 25 12 25 33 46 57 68 78 78 85 84 80 72 83 77 70 67 67 64 74 71 60 71 73 72 83 88 91 101 93 99 99 94 96 96 102 97 107 105 105
8 21 25 40 44 28 7 11 5 22 16 30 39 47 61 80 88 85 84 92 91 78 94 86 76 69 77 66 57 67 76 69 81 70 67 90 92 104 106 106 99 101 100 97 109 110 114 109 105
16 19 42 17 11 10 18 9 16 12 9 22 39 57 77 91 89 88 94 99 92 86 99 91 83 77 73 72 66 64 75 78 76 76 61 68 99 100 100 106 103 103 104 103 110 122 121 115 99
16 19 14 10 5 12 16 20 16 17 14 25 39 65 85 86 81 94 95 97 99 99 105 97 86 91 79 78 71 67 67 79 77 70 60 69 71 93 106 108 112 108 108 107 113 127 134 124 112
3 3 5 13 12 33 30 13 5 17 19 35 50 70 75 77 91 95 98 100 99 104 100 101 91 97 89 82 83 71 66 77 84 66 49 62 86 90 107 114 116 114 109 111 111 119 113 118 115
11 10 6 9 5 12 12 9 20 15 29 40 61 73 73 85 96 101 107 104 105 107 102 105 104 101 93 85 87 83 66 68 84 72 63 58 60 80 110 120 110 119 112 112 115 122 116 106 97
6 9 4 5 9 15 21 38 15 28 32 50 64 75 83 96 104 109 121 115 115 107 107 105 101 99 92 86 85 87 76 67 75 76 71 67 59 65 56 128 116 129 118 117 121 118 121 123 104
7 9 4 0 7 8 14 19 12 27 24 55 65 79 86 100 104 109 113 112 106 101 87 75 72 76 78 82 83 85 82 73 82 81 69 73 66 57 94 101 121 121 128 122 121 121 123 121 119
17 15 14 7 10 16 15 28 24 8 50 61 69 78 90 105 108 113 106 100 98 108 113 104 101 103 98 81 63 82 85 76 69 70 71 72 76 70 84 56 121 135 138 132 126 128 127 121 127
Wind_Direction_850mb
25 55 123 115 222 249 57 71 322 265 262 216 189 233 285 287 276 294 290 293 302 304 245 230 225 227 224 223 226 229 232 235 240 245 256 256 249 246 249 252 252 244 234 222 210 211 210 202 197
39 90 94 225 298 36 72 37 316 344 321 300 259 257 267 283 268 271 284 289 281 270 252 233 230 232 233 232 230 231 233 233 238 242 255 253 249 245 248 251 246 241 232 222 208 211 208 200 199
51 111 203 189 39 37 12 5 326 324 293 253 276 274 291 262 284 274 295 304 288 266 252 253 247 245 236 237 238 236 237 235 237 244 251 249 246 239 239 247 248 243 232 220 208 210 207 202 201
2 161 76 287 48 110 335 358 324 317 322 221 269 286 270 277 288 292 300 298 289 273 252 252 253 247 241 237 236 238 239 237 235 241 248 242 236 231 232 233 238 239 232 219 207 210 206 203 202
323 259 192 138 67 277 242 293 285 295 298 264 243 301 280 301 321 323 306 298 284 275 268 252 248 246 242 240 242 240 238 239 237 239 242 240 234 236 232 234 233 234 230 217 210 211 206 203 202
262 289 252 334 7 338 285 259 281 288 293 282 258 280 269 310 330 325 322 305 287 278 268 255 250 246 244 243 243 242 240 238 238 238 238 236 237 236 236 236 234 233 228 215 211 212 206 205 202
313 286 302 251 305 293 127 209 289 334 309 318 262 278 299 325 332 326 323 318 298 283 273 265 255 249 249 248 246 243 237 239 239 239 238 237 238 240 240 237 232 233 222 212 209 210 209 207 207
156 224 172 209 346 317 150 245 303 293 322 298 257 318 333 329 324 328 328 321 315 301 280 270 264 257 252 252 247 241 235 237 241 240 239 240 242 240 242 238 232 231 220 208 209 210 209 206 191
51 212 217 244 203 348 340 331 341 287 282 288 268 313 331 346 345 344 336 333 328 315 297 283 270 263 256 253 247 238 235 238 237 239 239 241 243 238 234 229 228 225 219 206 207 206 202 202 184
250 249 169 21 22 322 318 325 324 301 327 337 337 355 339 349 349 350 349 337 327 312 309 296 276 267 259 250 244 240 237 239 238 236 236 241 240 233 226 227 229 223 219 212 205 196 204 196 175
293 273 137 47 310 318 309 335 21 311 358 10 345 345 347 360 6 9 4 359 347 333 316 299 289 274 262 251 245 239 236 238 240 236 237 236 233 225 222 225 223 222 215 201 185 175 190 184 172
282 264 212 113 70 317 302 324 337 313 351 353 358 354 3 14 23 24 21 18 14 7 347 320 292 275 267 257 247 243 237 237 235 239 236 230 226 224 225 224 218 218 208 191 209 193 174 164 170
249 310 58 149 298 275 291 314 310 1 16 355 346 5 25 36 31 26 20 15 13 15 11 353 319 289 266 258 254 249 240 238 238 236 233 229 229 226 228 229 222 222 216 218 226 187 196 169 175
311 294 294 129 137 155 337 317 328 50 357 353 6 48 62 44 34 26 21 14 10 7 11 7 359 318 284 260 255 249 251 239 238 234 230 230 230 229 229 227 217 216 216 195 178 168 178 174 180
299 303 315 131 93 146 289 314 127 14 347 351 46 72 51 39 29 23 15 9 7 7 5 5 2 359 317 279 262 259 247 250 238 237 230 230 227 230 224 223 213 212 212 196 203 179 172 182 180
275 229 345 350 29 148 347 299 334 341 343 56 85 59 40 32 24 17 10 4 2 358 359 359 358 357 351 302 272 259 254 250 243 239 234 229 226 226 225 222 219 211 214 203 189 182 170 177 179
19 320 327 326 342 44 343 296 320 345 20 86 68 52 36 21 17 13 6 2 1 356 351 349 350 348 346 336 298 270 262 255 251 243 235 231 229 225 225 222 223 217 211 200 193 182 184 177 178
306 311 307 309 292 341 308 284 318 12 99 89 65 37 21 11 9 6 359 357 355 352 352 346 344 342 338 333 321 297 272 260 255 250 244 237 231 229 224 226 225 218 213 203 194 187 188 186 185
296 297 304 311 329 339 325 317 331 82 86 70 49 28 11 3 357 354 354 351 348 351 354 352 344 340 337 331 327 320 298 272 256 254 248 246 233 231 226 226 224 220 215 206 200 196 188 186 182
309 305 308 307 323 334 318 322 74 110 79 57 45 16 11 3 351 350 350 347 345 344 349 350 344 339 337 332 315 313 316 287 269 261 246 248 246 233 228 224 225 219 214 207 205 194 186 186 184
310 309 317 304 317 296 331 300 111 125 73 41 33 13 8 4 352 344 345 345 340 337 340 340 336 331 330 333 327 292 287 305 283 258 246 250 244 236 227 225 222 218 216 208 202 196 191 187 185
299 354 311 312 321 312 339 286 322 181 49 25 14 6 1 354 349 345 342 343 339 333 336 330 330 329 323 326 328 336 302 297 305 275 248 253 241 244 229 223 220 217 216 209 197 196 197 192 185
329 330 307 302 294 311 294 240 205 231 356 4 3 356 351 347 342 339 337 335 332 323 331 326 323 319 322 315 315 319 331 293 291 291 275 243 247 240 239 217 215 216 216 211 203 195 196 201 198
322 330 308 293 283 251 132 351 252 338 31 1 356 352 347 341 335 333 331 330 328 320 322 321 314 314 310 315 304 309 316 325 286 295 277 262 237 234 236 229 216 216 215 214 207 201 197 198 205
359 350 318 307 276 282 170 327 308 102 44 14 358 350 336 332 331 327 327 326 322 320 318 317 309 307 305 306 302 300 307 315 314 293 281 272 247 227 221 232 215 215 214 213 213 206 200 202 205
113 167 239 278 302 295 296 221 174 141 16 7 354 338 329 330 328 324 324 321 318 317 313 312 306 302 301 299 302 294 296 305 316 291 291 288 270 235 230 223 218 215 211 212 217 208 210 203 209
149 218 37 268 210 279 255 239 192 40 351 347 336 334 330 331 327 324 321 318 314 313 309 310 305 302 298 294 299 293 287 293 308 296 297 290 278 274 219 222 218 212 211 211 210 212 205 202 203
265 109 164 183 279 289 283 298 271 353 341 337 337 334 333 329 326 324 320 316 315 313 310 309 305 302 298 293 292 289 287 286 300 306 299 294 270 271 292 223 217 216 211 211 212 208 202 200 199
161 178 146 9 251 264 295 290 27 341 341 335 330 330 329 323 321 318 318 317 318 317 318 317 315 310 307 298 291 285 282 277 291 300 295 299 290 286 246 220 214 220 213 211 212 209 205 203 207
231 197 179 197 225 236 286 277 301 281 339 328 325 326 324 320 321 321 321 319 320 315 313 311 308 301 296 295 296 289 279 274 279 287 295 301 289 271 232 266 218 209 213 211 212 211 209 208 210